Tracking 28790 objects as of 18-Apr-2024
HD Live streaming from Space Station
objects crossing your sky now

TITAN 3C TRANSTAGE DEB

Track TITAN 3C TRANSTAGE DEB now!
10-day predictions


NORAD ID: 1959
Int'l Code: 1965-082GU
Perigee: 663.8 km
Apogee: 754.8 km
Inclination: 31.8 °
Period: 98.8 minutes
Semi major axis: 7080 km
RCS: 0.0229 m2 (small)
Launch date: October 15, 1965
Source: United States (US)
Launch site: AIR FORCE EASTERN TEST RANGE (AFETR)

Note: This is SATELLITE DEBRIS
Your satellite tracking list
Your tracking list is empty




NASA's NSSDC Master Catalog

Two Line Element Set (TLE):
1  1959U 65082GU  24108.97968666  .00001486  00000-0  30474-3 0  9997
2  1959  31.7922 352.4206 0064230 279.4150  79.9231 14.57222869 98346
Source of the keplerian elements: AFSPC